Time,TemperatureF,DewpointF,PressureIn,WindDirection,WindDirectionDegrees,WindSpeedMPH,WindSpeedGustMPH,Humidity,HourlyPrecipIn,Conditions,Clouds,dailyrainin,SolarRadiationWatts/m^2,SoftwareType,DateUTC
2013-10-13 00:03:00,46.0,43.5,29.97,WNW,290,0.0,0.0,91,0.00,CLR,CLR,0.00,0.0,WeatherDisplay:10.37,2013-10-13 05:03:00,
2013-10-13 00:08:00,46.0,43.8,29.97,WNW,290,0.0,0.0,92,0.00,CLR,CLR,0.00,0.0,WeatherDisplay:10.37,2013-10-13 05:08:00,
2013-10-13 00:13:00,45.8,43.3,29.97,WNW,290,0.0,0.0,91,0.00,CLR,CLR,0.00,0.0,WeatherDisplay:10.37,2013-10-13 05:13:00,
2013-10-13 00:18:00,45.6,43.1,29.97,WNW,290,0.0,0.0,91,0.00,CLR,CLR,0.00,0.0,WeatherDisplay:10.37,2013-10-13 05:18:00,
2013-10-13 00:23:00,45.4,43.2,29.97,WNW,290,0.0,0.0,92,0.00,CLR,CLR,0.00,0.0,WeatherDisplay:10.37,2013-10-13 05:23:00,
2013-10-13 00:28:00,45.5,43.6,29.97,WNW,290,0.0,1.0,93,0.00,CLR,CLR,0.00,0.0,WeatherDisplay:10.37,2013-10-13 05:28:00,
2013-10-13 00:33:00,45.9,43.7,29.97,WNW,290,0.0,1.0,92,0.00,CLR,CLR,0.00,0.0,WeatherDisplay:10.37,2013-10-13 05:33:00,
2013-10-13 00:38:00,45.7,42.9,29.97,WNW,290,0.0,0.0,90,0.00,CLR,CLR,0.00,0.0,WeatherDisplay:10.37,2013-10-13 05:38:00,
2013-10-13 00:43:00,45.4,42.6,29.98,WNW,290,0.0,0.0,90,0.00,CLR,CLR,0.00,0.0,WeatherDisplay:10.37,2013-10-13 05:43:00,
2013-10-13 00:48:00,45.1,42.6,29.98,WNW,290,0.0,0.0,91,0.00,CLR,CLR,0.00,0.0,WeatherDisplay:10.37,2013-10-13 05:48:00,
2013-10-13 00:53:00,44.8,42.3,29.98,WNW,290,0.0,0.0,91,0.00,CLR,CLR,0.00,0.0,WeatherDisplay:10.37,2013-10-13 05:53:00,
2013-10-13 00:58:00,44.8,42.6,29.98,WNW,290,0.0,0.0,92,0.00,CLR,CLR,0.00,0.0,WeatherDisplay:10.37,2013-10-13 05:58:00,
2013-10-13 01:03:00,44.7,42.5,29.98,WNW,290,0.0,0.0,92,0.00,CLR,CLR,0.00,0.0,WeatherDisplay:10.37,2013-10-13 06:03:00,
2013-10-13 01:08:00,44.5,42.3,29.98,WNW,290,0.0,0.0,92,0.00,CLR,CLR,0.00,0.0,WeatherDisplay:10.37,2013-10-13 06:08:00,
2013-10-13 01:13:00,44.3,42.2,29.99,WNW,290,0.0,0.0,92,0.00,CLR,CLR,0.00,0.0,WeatherDisplay:10.37,2013-10-13 06:13:00,
2013-10-13 01:18:00,44.2,42.0,29.99,WNW,290,0.0,0.0,92,0.00,CLR,CLR,0.00,0.0,WeatherDisplay:10.37,2013-10-13 06:18:00,
2013-10-13 01:23:00,44.0,41.8,29.99,WNW,290,0.0,0.0,92,0.00,CLR,CLR,0.00,0.0,WeatherDisplay:10.37,2013-10-13 06:23:00,
2013-10-13 01:28:00,43.9,41.7,29.99,WNW,290,0.0,0.0,92,0.00,CLR,CLR,0.00,0.0,WeatherDisplay:10.37,2013-10-13 06:28:00,
2013-10-13 01:33:00,43.9,42.0,29.99,WNW,290,0.0,0.0,93,0.00,CLR,CLR,0.00,0.0,WeatherDisplay:10.37,2013-10-13 06:33:00,
2013-10-13 01:38:00,43.8,41.9,29.99,WNW,290,0.0,0.0,93,0.00,CLR,CLR,0.00,0.0,WeatherDisplay:10.37,2013-10-13 06:38:00,
2013-10-13 01:43:00,43.6,41.7,29.99,WNW,290,0.0,0.0,93,0.00,CLR,CLR,0.00,0.0,WeatherDisplay:10.37,2013-10-13 06:43:00,
2013-10-13 01:48:00,43.3,41.2,29.99,WNW,290,0.0,0.0,92,0.00,CLR,CLR,0.00,0.0,WeatherDisplay:10.37,2013-10-13 06:48:00,
2013-10-13 01:53:00,43.2,41.3,30.00,WNW,290,0.0,0.0,93,0.00,CLR,CLR,0.00,0.0,WeatherDisplay:10.37,2013-10-13 06:53:00,
2013-10-13 01:58:00,43.2,41.6,30.00,WNW,290,0.0,0.0,94,0.00,CLR,CLR,0.00,0.0,WeatherDisplay:10.37,2013-10-13 06:58:00,
2013-10-13 02:03:00,43.2,41.6,30.00,WNW,290,0.0,0.0,94,0.00,CLR,CLR,0.00,0.0,WeatherDisplay:10.37,2013-10-13 07:03:00,
2013-10-13 02:08:00,43.0,41.2,30.00,WNW,290,0.0,0.0,93,0.00,CLR,CLR,0.00,0.0,WeatherDisplay:10.37,2013-10-13 07:08:00,
2013-10-13 02:13:00,42.7,41.1,30.00,WNW,290,0.0,0.0,94,0.00,CLR,CLR,0.00,0.0,WeatherDisplay:10.37,2013-10-13 07:13:00,
2013-10-13 02:18:00,42.9,41.6,30.00,WNW,290,0.0,0.0,95,0.00,CLR,CLR,0.00,0.0,WeatherDisplay:10.37,2013-10-13 07:18:00,
2013-10-13 02:23:00,43.1,41.8,30.00,WNW,290,0.0,0.0,95,0.00,CLR,CLR,0.00,0.0,WeatherDisplay:10.37,2013-10-13 07:23:00,
2013-10-13 02:28:00,43.3,42.0,30.00,WNW,290,0.0,0.0,95,0.00,CLR,CLR,0.00,0.0,WeatherDisplay:10.37,2013-10-13 07:28:00,
2013-10-13 02:33:00,43.4,42.1,30.00,WNW,290,0.0,0.0,95,0.00,CLR,CLR,0.00,0.0,WeatherDisplay:10.37,2013-10-13 07:33:00,
2013-10-13 02:38:00,43.6,42.3,30.00,WNW,290,0.0,0.0,95,0.00,CLR,CLR,0.00,0.0,WeatherDisplay:10.37,2013-10-13 07:38:00,
2013-10-13 02:43:00,43.8,42.4,30.00,WNW,290,0.0,0.0,95,0.00,CLR,CLR,0.00,0.0,WeatherDisplay:10.37,2013-10-13 07:43:00,
2013-10-13 02:48:00,43.6,41.7,30.00,WNW,290,0.0,0.0,93,0.00,CLR,CLR,0.00,0.0,WeatherDisplay:10.37,2013-10-13 07:48:00,
2013-10-13 02:53:00,43.1,40.9,30.00,WNW,290,0.0,0.0,92,0.00,CLR,CLR,0.00,0.0,WeatherDisplay:10.37,2013-10-13 07:53:00,
2013-10-13 02:58:00,42.9,41.3,30.00,WNW,290,0.0,0.0,94,0.00,CLR,CLR,0.00,0.0,WeatherDisplay:10.37,2013-10-13 07:58:00,
2013-10-13 03:03:00,42.9,41.3,30.00,WNW,290,0.0,0.0,94,0.00,CLR,CLR,0.00,0.0,WeatherDisplay:10.37,2013-10-13 08:03:00,
2013-10-13 03:08:00,42.5,40.6,30.00,WNW,290,0.0,0.0,93,0.00,CLR,CLR,0.00,0.0,WeatherDisplay:10.37,2013-10-13 08:08:00,
2013-10-13 03:13:00,42.0,40.1,30.00,WNW,290,0.0,0.0,93,0.00,CLR,CLR,0.00,0.0,WeatherDisplay:10.37,2013-10-13 08:13:00,
2013-10-13 03:18:00,41.8,39.9,30.00,WNW,290,0.0,0.0,93,0.00,CLR,CLR,0.00,0.0,WeatherDisplay:10.37,2013-10-13 08:18:00,
2013-10-13 03:23:00,41.9,40.5,30.00,WNW,290,1.0,2.0,95,0.00,CLR,CLR,0.00,0.0,WeatherDisplay:10.37,2013-10-13 08:23:00,
2013-10-13 03:28:00,42.1,40.8,30.00,WNW,290,2.0,2.0,95,0.00,CLR,CLR,0.00,0.0,WeatherDisplay:10.37,2013-10-13 08:28:00,
2013-10-13 03:33:00,42.0,40.4,30.01,WNW,290,0.0,2.0,94,0.00,CLR,CLR,0.00,0.0,WeatherDisplay:10.37,2013-10-13 08:33:00,
2013-10-13 03:38:00,41.3,39.5,30.01,WNW,290,0.0,0.0,93,0.00,CLR,CLR,0.00,0.0,WeatherDisplay:10.37,2013-10-13 08:38:00,
2013-10-13 03:43:00,41.0,39.1,30.01,WNW,290,0.0,0.0,93,0.00,CLR,CLR,0.00,0.0,WeatherDisplay:10.37,2013-10-13 08:43:00,
2013-10-13 03:48:00,41.5,40.4,30.01,WNW,290,1.0,1.0,96,0.00,CLR,CLR,0.00,0.0,WeatherDisplay:10.37,2013-10-13 08:48:00,
2013-10-13 03:53:00,42.4,41.6,30.02,WNW,290,1.0,1.0,97,0.00,CLR,CLR,0.00,0.0,WeatherDisplay:10.37,2013-10-13 08:53:00,
2013-10-13 03:58:00,42.5,41.2,30.02,WNW,290,0.0,1.0,95,0.00,CLR,CLR,0.00,0.0,WeatherDisplay:10.37,2013-10-13 08:58:00,
2013-10-13 04:03:00,42.5,41.2,30.02,WNW,290,0.0,1.0,95,0.00,CLR,CLR,0.00,0.0,WeatherDisplay:10.37,2013-10-13 09:03:00,
2013-10-13 04:08:00,42.9,41.5,30.02,WNW,290,1.0,1.0,95,0.00,CLR,CLR,0.00,0.0,WeatherDisplay:10.37,2013-10-13 09:08:00,
2013-10-13 04:13:00,43.2,41.8,30.02,WNW,290,1.0,1.0,95,0.00,CLR,CLR,0.00,0.0,WeatherDisplay:10.37,2013-10-13 09:13:00,
2013-10-13 04:18:00,43.3,41.7,30.02,WNW,290,0.0,1.0,94,0.00,CLR,CLR,0.00,0.0,WeatherDisplay:10.37,2013-10-13 09:18:00,
2013-10-13 04:23:00,42.2,39.5,30.03,WNW,290,0.0,1.0,90,0.00,CLR,CLR,0.00,0.0,WeatherDisplay:10.37,2013-10-13 09:23:00,
2013-10-13 04:28:00,41.4,38.9,30.03,WNW,290,0.0,0.0,91,0.00,CLR,CLR,0.00,0.0,WeatherDisplay:10.37,2013-10-13 09:28:00,
2013-10-13 04:33:00,40.9,38.4,30.03,WNW,290,0.0,0.0,91,0.00,CLR,CLR,0.00,0.0,WeatherDisplay:10.37,2013-10-13 09:33:00,
2013-10-13 04:38:00,40.5,38.3,30.03,WNW,290,0.0,0.0,92,0.00,CLR,CLR,0.00,0.0,WeatherDisplay:10.37,2013-10-13 09:38:00,
2013-10-13 04:43:00,40.2,38.4,30.03,WNW,290,0.0,0.0,93,0.00,CLR,CLR,0.00,0.0,WeatherDisplay:10.37,2013-10-13 09:43:00,
2013-10-13 04:48:00,40.2,38.6,30.04,WNW,290,0.0,0.0,94,0.00,CLR,CLR,0.00,0.0,WeatherDisplay:10.37,2013-10-13 09:48:00,
2013-10-13 04:53:00,40.2,38.6,30.04,WNW,290,0.0,0.0,94,0.00,CLR,CLR,0.00,0.0,WeatherDisplay:10.37,2013-10-13 09:53:00,
2013-10-13 04:58:00,40.0,38.4,30.04,WNW,290,0.0,0.0,94,0.00,CLR,CLR,0.00,0.0,WeatherDisplay:10.37,2013-10-13 09:58:00,
2013-10-13 05:03:00,39.6,37.8,30.04,WNW,290,0.0,0.0,93,0.00,CLR,CLR,0.00,0.0,WeatherDisplay:10.37,2013-10-13 10:03:00,
2013-10-13 05:08:00,39.2,37.4,30.05,WNW,290,0.0,0.0,93,0.00,CLR,CLR,0.00,0.0,WeatherDisplay:10.37,2013-10-13 10:08:00,
2013-10-13 05:13:00,39.0,37.4,30.05,WNW,290,0.0,0.0,94,0.00,CLR,CLR,0.00,0.0,WeatherDisplay:10.37,2013-10-13 10:13:00,
2013-10-13 05:18:00,39.0,37.7,30.05,WNW,290,0.0,0.0,95,0.00,CLR,CLR,0.00,0.0,WeatherDisplay:10.37,2013-10-13 10:18:00,
2013-10-13 05:23:00,39.1,37.8,30.05,WNW,290,0.0,2.0,95,0.00,CLR,CLR,0.00,0.0,WeatherDisplay:10.37,2013-10-13 10:23:00,
2013-10-13 05:28:00,39.5,38.5,30.06,WNW,290,1.0,3.0,96,0.00,CLR,CLR,0.00,0.0,WeatherDisplay:10.37,2013-10-13 10:28:00,
2013-10-13 05:33:00,39.0,37.4,30.06,WNW,290,0.0,1.0,94,0.00,CLR,CLR,0.00,0.0,WeatherDisplay:10.37,2013-10-13 10:33:00,
2013-10-13 05:38:00,38.7,37.1,30.06,WNW,290,0.0,1.0,94,0.00,CLR,CLR,0.00,0.0,WeatherDisplay:10.37,2013-10-13 10:38:00,
2013-10-13 05:43:00,38.9,37.8,30.06,WNW,290,0.0,2.0,96,0.00,CLR,CLR,0.00,0.0,WeatherDisplay:10.37,2013-10-13 10:43:00,
2013-10-13 05:48:00,38.6,37.2,30.06,WNW,290,0.0,0.0,95,0.00,CLR,CLR,0.00,0.0,WeatherDisplay:10.37,2013-10-13 10:48:00,
2013-10-13 05:53:00,38.4,37.1,30.06,WNW,290,0.0,2.0,95,0.00,CLR,CLR,0.00,0.0,WeatherDisplay:10.37,2013-10-13 10:53:00,
2013-10-13 05:58:00,38.3,37.0,30.07,WNW,290,0.0,0.0,95,0.00,CLR,CLR,0.00,0.0,WeatherDisplay:10.37,2013-10-13 10:58:00,
2013-10-13 06:03:00,37.9,36.3,30.07,WNW,290,0.0,1.0,94,0.00,CLR,CLR,0.00,0.0,WeatherDisplay:10.37,2013-10-13 11:03:00,
2013-10-13 06:08:00,37.6,36.3,30.07,WNW,290,0.0,1.0,95,0.00,CLR,CLR,0.00,0.0,WeatherDisplay:10.37,2013-10-13 11:08:00,
2013-10-13 06:13:00,37.5,36.2,30.07,WNW,290,0.0,0.0,95,0.00,CLR,CLR,0.00,0.0,WeatherDisplay:10.37,2013-10-13 11:13:00,
2013-10-13 06:18:00,37.6,36.3,30.07,WNW,290,0.0,0.0,95,0.00,CLR,CLR,0.00,0.0,WeatherDisplay:10.37,2013-10-13 11:18:00,
2013-10-13 06:23:00,37.7,36.7,30.08,WNW,290,0.0,0.0,96,0.00,CLR,CLR,0.00,0.0,WeatherDisplay:10.37,2013-10-13 11:23:00,
2013-10-13 06:28:00,37.9,36.9,30.08,WNW,290,0.0,0.0,96,0.00,CLR,CLR,0.00,0.0,WeatherDisplay:10.37,2013-10-13 11:28:00,
2013-10-13 06:33:00,38.3,37.5,30.08,WNW,290,0.0,1.0,97,0.00,CLR,CLR,0.00,0.0,WeatherDisplay:10.37,2013-10-13 11:33:00,
2013-10-13 06:38:00,38.4,37.6,30.08,WNW,290,0.0,0.0,97,0.00,CLR,CLR,0.00,0.0,WeatherDisplay:10.37,2013-10-13 11:38:00,
2013-10-13 06:43:00,38.2,37.2,30.08,WNW,290,0.0,0.0,96,0.00,CLR,CLR,0.00,0.0,WeatherDisplay:10.37,2013-10-13 11:43:00,
2013-10-13 06:48:00,38.1,37.1,30.08,WNW,290,0.0,0.0,96,0.00,CLR,CLR,0.00,0.0,WeatherDisplay:10.37,2013-10-13 11:48:00,
2013-10-13 06:53:00,37.7,36.4,30.08,WNW,290,0.0,0.0,95,0.00,CLR,CLR,0.00,0.0,WeatherDisplay:10.37,2013-10-13 11:53:00,
2013-10-13 06:58:00,37.4,36.4,30.09,WNW,290,0.0,1.0,96,0.00,CLR,CLR,0.00,0.0,WeatherDisplay:10.37,2013-10-13 11:58:00,
2013-10-13 07:03:00,37.4,36.4,30.09,WNW,290,0.0,1.0,96,0.00,CLR,CLR,0.00,0.0,WeatherDisplay:10.37,2013-10-13 12:03:00,
2013-10-13 07:08:00,37.4,36.4,30.09,WNW,290,0.0,0.0,96,0.00,CLR,CLR,0.00,0.0,WeatherDisplay:10.37,2013-10-13 12:08:00,
2013-10-13 07:13:00,37.6,36.5,30.09,WNW,290,0.0,0.0,96,0.00,CLR,CLR,0.00,0.0,WeatherDisplay:10.37,2013-10-13 12:13:00,
2013-10-13 07:18:00,38.0,37.2,30.09,WNW,290,0.0,1.0,97,0.00,CLR,CLR,0.00,0.0,WeatherDisplay:10.37,2013-10-13 12:18:00,
2013-10-13 07:23:00,38.4,37.6,30.09,WNW,290,0.0,0.0,97,0.00,CLR,CLR,0.00,0.0,WeatherDisplay:10.37,2013-10-13 12:23:00,
2013-10-13 07:28:00,38.9,38.1,30.10,WNW,290,0.0,0.0,97,0.00,CLR,CLR,0.00,0.0,WeatherDisplay:10.37,2013-10-13 12:28:00,
2013-10-13 07:33:00,39.3,38.5,30.10,WNW,290,0.0,0.0,97,0.00,CLR,CLR,0.00,0.0,WeatherDisplay:10.37,2013-10-13 12:33:00,
2013-10-13 07:38:00,40.1,39.5,30.10,WNW,290,0.0,0.0,98,0.00,CLR,CLR,0.00,0.0,WeatherDisplay:10.37,2013-10-13 12:38:00,
2013-10-13 07:43:00,41.0,40.4,30.10,WNW,290,0.0,0.0,98,0.00,CLR,CLR,0.00,0.0,WeatherDisplay:10.37,2013-10-13 12:43:00,
2013-10-13 07:48:00,41.3,40.8,30.11,WNW,290,0.0,0.0,98,0.00,CLR,CLR,0.00,0.0,WeatherDisplay:10.37,2013-10-13 12:48:00,
2013-10-13 07:53:00,41.5,41.0,30.11,WNW,290,0.0,1.0,98,0.00,CLR,CLR,0.00,0.0,WeatherDisplay:10.37,2013-10-13 12:53:00,
2013-10-13 07:58:00,42.0,41.2,30.11,WNW,290,0.0,1.0,97,0.00,CLR,CLR,0.00,0.0,WeatherDisplay:10.37,2013-10-13 12:58:00,
2013-10-13 08:03:00,42.6,41.8,30.11,WNW,290,0.0,1.0,97,0.00,CLR,CLR,0.00,0.0,WeatherDisplay:10.37,2013-10-13 13:03:00,
2013-10-13 08:08:00,43.3,42.5,30.11,WNW,290,0.0,1.0,97,0.00,CLR,CLR,0.00,0.0,WeatherDisplay:10.37,2013-10-13 13:08:00,
2013-10-13 08:13:00,44.0,43.5,30.11,WNW,290,0.0,1.0,98,0.00,CLR,CLR,0.00,0.0,WeatherDisplay:10.37,2013-10-13 13:13:00,
2013-10-13 08:18:00,44.9,44.4,30.11,WNW,290,0.0,2.0,98,0.00,CLR,CLR,0.00,0.0,WeatherDisplay:10.37,2013-10-13 13:18:00,
2013-10-13 08:23:00,45.6,45.1,30.11,WNW,290,1.0,2.0,98,0.00,CLR,CLR,0.00,0.0,WeatherDisplay:10.37,2013-10-13 13:23:00,
2013-10-13 08:28:00,46.4,45.3,30.11,WNW,292,1.0,3.0,96,0.00,CLR,CLR,0.00,0.0,WeatherDisplay:10.37,2013-10-13 13:28:00,
2013-10-13 08:33:00,47.4,46.0,30.12,WNW,293,0.0,3.0,95,0.00,CLR,CLR,0.00,0.0,WeatherDisplay:10.37,2013-10-13 13:33:00,
2013-10-13 08:38:00,48.5,46.3,30.12,WNW,294,0.0,1.0,92,0.00,CLR,CLR,0.00,0.0,WeatherDisplay:10.37,2013-10-13 13:38:00,
2013-10-13 08:43:00,49.4,46.6,30.12,NW,316,0.0,3.0,90,0.00,CLR,CLR,0.00,0.0,WeatherDisplay:10.37,2013-10-13 13:43:00,
2013-10-13 08:48:00,50.4,46.6,30.12,NNW,329,2.0,5.0,87,0.00,CLR,CLR,0.00,0.0,WeatherDisplay:10.37,2013-10-13 13:48:00,
2013-10-13 08:53:00,51.1,46.7,30.12,NNW,340,1.0,5.0,85,0.00,CLR,CLR,0.00,0.0,WeatherDisplay:10.37,2013-10-13 13:53:00,
2013-10-13 08:58:00,51.9,46.3,30.12,North,352,3.0,5.0,81,0.00,CLR,CLR,0.00,0.0,WeatherDisplay:10.37,2013-10-13 13:58:00,
2013-10-13 09:03:00,52.5,46.2,30.13,North,353,2.0,5.0,79,0.00,CLR,CLR,0.00,0.0,WeatherDisplay:10.37,2013-10-13 14:03:00,
2013-10-13 09:08:00,53.0,46.0,30.13,North,350,3.0,5.0,77,0.00,CLR,CLR,0.00,0.0,WeatherDisplay:10.37,2013-10-13 14:08:00,
2013-10-13 09:13:00,53.5,46.8,30.13,North,352,2.0,6.0,78,0.00,CLR,CLR,0.00,0.0,WeatherDisplay:10.37,2013-10-13 14:13:00,
2013-10-13 09:18:00,54.1,47.0,30.14,NNW,347,2.0,6.0,77,0.00,CLR,CLR,0.00,0.0,WeatherDisplay:10.37,2013-10-13 14:18:00,
2013-10-13 09:23:00,54.5,47.1,30.14,North,350,3.0,8.0,76,0.00,CLR,CLR,0.00,0.0,WeatherDisplay:10.37,2013-10-13 14:23:00,
2013-10-13 09:28:00,54.9,46.7,30.14,North,359,3.0,7.0,74,0.00,CLR,CLR,0.00,0.0,WeatherDisplay:10.37,2013-10-13 14:28:00,
2013-10-13 09:33:00,55.3,46.8,30.14,North,355,1.0,7.0,73,0.00,CLR,CLR,0.00,0.0,WeatherDisplay:10.37,2013-10-13 14:33:00,
2013-10-13 09:38:00,55.7,46.8,30.14,NNW,341,5.0,6.0,72,0.00,CLR,CLR,0.00,0.0,WeatherDisplay:10.37,2013-10-13 14:38:00,
2013-10-13 09:43:00,56.1,46.8,30.14,North,351,3.0,8.0,71,0.00,CLR,CLR,0.00,0.0,WeatherDisplay:10.37,2013-10-13 14:43:00,
2013-10-13 09:48:00,56.7,46.7,30.14,North,358,3.0,7.0,69,0.00,CLR,CLR,0.00,0.0,WeatherDisplay:10.37,2013-10-13 14:48:00,
2013-10-13 09:53:00,57.2,46.3,30.15,North,359,5.0,10.0,67,0.00,CLR,CLR,0.00,0.0,WeatherDisplay:10.37,2013-10-13 14:53:00,
2013-10-13 09:58:00,57.8,47.3,30.15,North,6,2.0,9.0,68,0.00,CLR,CLR,0.00,0.0,WeatherDisplay:10.37,2013-10-13 14:58:00,
2013-10-13 10:03:00,58.4,45.8,30.15,North,360,5.0,7.0,63,0.00,CLR,CLR,0.00,0.0,WeatherDisplay:10.37,2013-10-13 15:03:00,
2013-10-13 10:08:00,59.0,47.3,30.14,North,3,2.0,7.0,65,0.00,CLR,CLR,0.00,0.0,WeatherDisplay:10.37,2013-10-13 15:08:00,
2013-10-13 10:13:00,59.7,45.8,30.14,North,357,2.0,6.0,60,0.00,CLR,CLR,0.00,0.0,WeatherDisplay:10.37,2013-10-13 15:13:00,
2013-10-13 10:18:00,60.2,45.8,30.14,North,358,3.0,6.0,59,0.00,CLR,CLR,0.00,0.0,WeatherDisplay:10.37,2013-10-13 15:18:00,
2013-10-13 10:23:00,60.8,46.8,30.14,North,350,2.0,6.0,60,0.00,CLR,CLR,0.00,0.0,WeatherDisplay:10.37,2013-10-13 15:23:00,
2013-10-13 10:28:00,61.3,45.4,30.14,NNW,336,2.0,6.0,56,0.00,CLR,CLR,0.00,0.0,WeatherDisplay:10.37,2013-10-13 15:28:00,
2013-10-13 10:33:00,61.7,45.3,30.15,NNW,339,2.0,8.0,55,0.00,CLR,CLR,0.00,0.0,WeatherDisplay:10.37,2013-10-13 15:33:00,
2013-10-13 10:38:00,61.9,45.1,30.15,North,350,3.0,5.0,54,0.00,CLR,CLR,0.00,0.0,WeatherDisplay:10.37,2013-10-13 15:38:00,
2013-10-13 10:43:00,62.1,45.7,30.15,North,357,3.0,6.0,55,0.00,CLR,CLR,0.00,0.0,WeatherDisplay:10.37,2013-10-13 15:43:00,
2013-10-13 10:48:00,62.3,44.0,30.15,NNW,342,2.0,7.0,51,0.00,CLR,CLR,0.00,0.0,WeatherDisplay:10.37,2013-10-13 15:48:00,
2013-10-13 10:53:00,62.7,45.8,30.15,North,351,3.0,6.0,54,0.00,CLR,CLR,0.00,0.0,WeatherDisplay:10.37,2013-10-13 15:53:00,
2013-10-13 10:58:00,62.8,44.9,30.15,NNW,334,2.0,7.0,52,0.00,CLR,CLR,0.00,0.0,WeatherDisplay:10.37,2013-10-13 15:58:00,
2013-10-13 11:08:00,63.1,44.2,30.15,North,350,5.0,9.0,50,0.00,CLR,CLR,0.00,0.0,WeatherDisplay:10.37,2013-10-13 16:08:00,
2013-10-13 11:13:00,63.2,43.7,30.15,North,3,2.0,5.0,49,0.00,CLR,CLR,0.00,0.0,WeatherDisplay:10.37,2013-10-13 16:13:00,
2013-10-13 11:18:00,63.5,45.5,30.15,North,1,2.0,7.0,52,0.00,CLR,CLR,0.00,0.0,WeatherDisplay:10.37,2013-10-13 16:18:00,
2013-10-13 11:23:00,63.9,40.3,30.15,NNW,338,3.0,6.0,42,0.00,CLR,CLR,0.00,0.0,WeatherDisplay:10.37,2013-10-13 16:23:00,
2013-10-13 11:28:00,64.0,42.2,30.15,North,353,2.0,8.0,45,0.00,CLR,CLR,0.00,0.0,WeatherDisplay:10.37,2013-10-13 16:28:00,
2013-10-13 11:33:00,63.9,40.4,30.15,North,353,2.0,8.0,42,0.00,CLR,CLR,0.00,0.0,WeatherDisplay:10.37,2013-10-13 16:33:00,
2013-10-13 11:38:00,64.2,41.2,30.15,NW,324,2.0,7.0,43,0.00,CLR,CLR,0.00,0.0,WeatherDisplay:10.37,2013-10-13 16:38:00,
2013-10-13 11:43:00,64.5,40.3,30.15,NW,310,3.0,10.0,41,0.00,CLR,CLR,0.00,0.0,WeatherDisplay:10.37,2013-10-13 16:43:00,
2013-10-13 11:48:00,64.7,39.8,30.14,NW,326,3.0,6.0,40,0.00,CLR,CLR,0.00,0.0,WeatherDisplay:10.37,2013-10-13 16:48:00,
2013-10-13 11:53:00,64.7,41.7,30.14,NW,321,2.0,7.0,43,0.00,CLR,CLR,0.00,0.0,WeatherDisplay:10.37,2013-10-13 16:53:00,
2013-10-13 11:58:00,65.2,40.3,30.14,WNW,297,3.0,7.0,40,0.00,CLR,CLR,0.00,0.0,WeatherDisplay:10.37,2013-10-13 16:58:00,
2013-10-13 12:03:00,65.5,39.9,30.15,NW,315,5.0,8.0,39,0.00,CLR,CLR,0.00,0.0,WeatherDisplay:10.37,2013-10-13 17:03:00,
2013-10-13 12:08:00,65.0,42.5,30.14,NW,317,1.0,7.0,44,0.00,CLR,CLR,0.00,0.0,WeatherDisplay:10.37,2013-10-13 17:08:00,
2013-10-13 12:13:00,65.1,42.0,30.14,NNW,340,2.0,7.0,43,0.00,CLR,CLR,0.00,0.0,WeatherDisplay:10.37,2013-10-13 17:13:00,
2013-10-13 12:18:00,64.9,40.6,30.14,NW,324,5.0,9.0,41,0.00,CLR,CLR,0.00,0.0,WeatherDisplay:10.37,2013-10-13 17:18:00,
2013-10-13 12:23:00,64.8,39.2,30.14,WNW,286,5.0,7.0,39,0.00,CLR,CLR,0.00,0.0,WeatherDisplay:10.37,2013-10-13 17:23:00,
2013-10-13 12:28:00,64.8,40.5,30.14,West,274,3.0,10.0,41,0.00,CLR,CLR,0.00,0.0,WeatherDisplay:10.37,2013-10-13 17:28:00,
2013-10-13 12:33:00,65.0,40.7,30.14,WNW,287,3.0,11.0,41,0.00,CLR,CLR,0.00,0.0,WeatherDisplay:10.37,2013-10-13 17:33:00,
2013-10-13 12:38:00,65.0,40.7,30.14,NW,304,3.0,12.0,41,0.00,CLR,CLR,0.00,0.0,WeatherDisplay:10.37,2013-10-13 17:38:00,
2013-10-13 12:43:00,65.1,41.4,30.13,NW,319,3.0,8.0,42,0.00,CLR,CLR,0.00,0.0,WeatherDisplay:10.37,2013-10-13 17:43:00,
2013-10-13 12:48:00,65.2,38.9,30.13,WNW,299,5.0,8.0,38,0.00,CLR,CLR,0.00,0.0,WeatherDisplay:10.37,2013-10-13 17:48:00,
2013-10-13 12:53:00,65.2,36.8,30.14,WNW,292,3.0,9.0,35,0.00,CLR,CLR,0.00,0.0,WeatherDisplay:10.37,2013-10-13 17:53:00,
2013-10-13 12:58:00,65.2,39.6,30.13,NW,309,3.0,8.0,39,0.00,CLR,CLR,0.00,0.0,WeatherDisplay:10.37,2013-10-13 17:58:00,
2013-10-13 13:03:00,65.9,38.2,30.13,NW,313,5.0,9.0,36,0.00,CLR,CLR,0.00,0.0,WeatherDisplay:10.37,2013-10-13 18:03:00,
2013-10-13 13:08:00,65.9,39.6,30.13,NW,308,2.0,6.0,38,0.00,CLR,CLR,0.00,0.0,WeatherDisplay:10.37,2013-10-13 18:08:00,
2013-10-13 13:13:00,65.9,38.2,30.13,NW,314,3.0,12.0,36,0.00,CLR,CLR,0.00,0.0,WeatherDisplay:10.37,2013-10-13 18:13:00,
2013-10-13 13:18:00,65.9,39.6,30.13,NW,312,3.0,6.0,38,0.00,CLR,CLR,0.00,0.0,WeatherDisplay:10.37,2013-10-13 18:18:00,
2013-10-13 13:23:00,66.1,39.1,30.13,NNW,340,2.0,7.0,37,0.00,CLR,CLR,0.00,0.0,WeatherDisplay:10.37,2013-10-13 18:23:00,
2013-10-13 13:28:00,66.0,39.0,30.13,NNW,331,5.0,8.0,37,0.00,CLR,CLR,0.00,0.0,WeatherDisplay:10.37,2013-10-13 18:28:00,
2013-10-13 13:38:00,66.1,39.7,30.13,NW,319,3.0,6.0,38,0.00,CLR,CLR,0.00,0.0,WeatherDisplay:10.37,2013-10-13 18:38:00,
2013-10-13 13:43:00,66.1,38.4,30.12,NW,318,6.0,9.0,36,0.00,CLR,CLR,0.00,0.0,WeatherDisplay:10.37,2013-10-13 18:43:00,
2013-10-13 13:48:00,66.2,39.1,30.12,WNW,301,3.0,6.0,37,0.00,CLR,CLR,0.00,0.0,WeatherDisplay:10.37,2013-10-13 18:48:00,
2013-10-13 13:53:00,66.4,37.2,30.12,NW,304,2.0,6.0,34,0.00,CLR,CLR,0.00,0.0,WeatherDisplay:10.37,2013-10-13 18:53:00,
2013-10-13 13:58:00,66.1,38.4,30.12,WNW,300,3.0,7.0,36,0.00,CLR,CLR,0.00,0.0,WeatherDisplay:10.37,2013-10-13 18:58:00,
2013-10-13 14:03:00,66.0,40.3,30.12,NNW,331,5.0,8.0,39,0.00,CLR,CLR,0.00,0.0,WeatherDisplay:10.37,2013-10-13 19:03:00,
2013-10-13 14:08:00,66.3,40.6,30.12,NNW,343,1.0,7.0,39,0.00,CLR,CLR,0.00,0.0,WeatherDisplay:10.37,2013-10-13 19:08:00,
2013-10-13 14:13:00,66.7,38.9,30.12,NNW,331,2.0,8.0,36,0.00,CLR,CLR,0.00,0.0,WeatherDisplay:10.37,2013-10-13 19:13:00,
2013-10-13 14:23:00,66.6,40.2,30.12,NNW,336,2.0,8.0,38,0.00,CLR,CLR,0.00,0.0,WeatherDisplay:10.37,2013-10-13 19:23:00,
2013-10-13 14:28:00,66.4,37.9,30.12,NNW,339,3.0,9.0,35,0.00,CLR,CLR,0.00,0.0,WeatherDisplay:10.37,2013-10-13 19:28:00,
2013-10-13 14:33:00,66.3,39.2,30.12,NW,317,1.0,9.0,37,0.00,CLR,CLR,0.00,0.0,WeatherDisplay:10.37,2013-10-13 19:33:00,
2013-10-13 14:38:00,66.2,39.2,30.12,WNW,295,2.0,8.0,37,0.00,CLR,CLR,0.00,0.0,WeatherDisplay:10.37,2013-10-13 19:38:00,
2013-10-13 14:43:00,66.4,40.7,30.12,NW,322,3.0,7.0,39,0.00,CLR,CLR,0.00,0.0,WeatherDisplay:10.37,2013-10-13 19:43:00,
2013-10-13 14:48:00,66.3,39.2,30.11,WNW,303,5.0,12.0,37,0.00,CLR,CLR,0.00,0.0,WeatherDisplay:10.37,2013-10-13 19:48:00,
2013-10-13 14:53:00,66.2,40.5,30.12,NW,320,2.0,9.0,39,0.00,CLR,CLR,0.00,0.0,WeatherDisplay:10.37,2013-10-13 19:53:00,
2013-10-13 14:58:00,66.1,40.4,30.12,North,357,2.0,9.0,39,0.00,CLR,CLR,0.00,0.0,WeatherDisplay:10.37,2013-10-13 19:58:00,
2013-10-13 15:03:00,66.3,39.2,30.11,NNW,342,3.0,7.0,37,0.00,CLR,CLR,0.00,0.0,WeatherDisplay:10.37,2013-10-13 20:03:00,
2013-10-13 15:08:00,66.3,39.9,30.11,NNW,339,3.0,7.0,38,0.00,CLR,CLR,0.00,0.0,WeatherDisplay:10.37,2013-10-13 20:08:00,
2013-10-13 15:13:00,66.1,39.0,30.11,North,350,6.0,10.0,37,0.00,CLR,CLR,0.00,0.0,WeatherDisplay:10.37,2013-10-13 20:13:00,
2013-10-13 15:18:00,65.6,39.3,30.11,North,10,5.0,8.0,38,0.00,CLR,CLR,0.00,0.0,WeatherDisplay:10.37,2013-10-13 20:18:00,
2013-10-13 15:23:00,65.4,39.8,30.11,NNE,17,3.0,7.0,39,0.00,CLR,CLR,0.00,0.0,WeatherDisplay:10.37,2013-10-13 20:23:00,
2013-10-13 15:28:00,65.5,38.5,30.11,North,358,2.0,7.0,37,0.00,CLR,CLR,0.00,0.0,WeatherDisplay:10.37,2013-10-13 20:28:00,
2013-10-13 15:33:00,65.7,38.7,30.11,NW,310,5.0,8.0,37,0.00,CLR,CLR,0.00,0.0,WeatherDisplay:10.37,2013-10-13 20:33:00,
2013-10-13 15:43:00,65.4,41.1,30.11,North,355,1.0,7.0,41,0.00,CLR,CLR,0.00,0.0,WeatherDisplay:10.37,2013-10-13 20:43:00,
2013-10-13 15:48:00,65.4,41.1,30.11,North,3,1.0,8.0,41,0.00,CLR,CLR,0.00,0.0,WeatherDisplay:10.37,2013-10-13 20:48:00,
2013-10-13 15:53:00,65.4,39.8,30.11,North,354,1.0,5.0,39,0.00,CLR,CLR,0.00,0.0,WeatherDisplay:10.37,2013-10-13 20:53:00,
2013-10-13 15:58:00,65.6,38.6,30.12,North,7,3.0,6.0,37,0.00,CLR,CLR,0.00,0.0,WeatherDisplay:10.37,2013-10-13 20:58:00,
2013-10-13 16:08:00,65.0,40.1,30.12,NNE,24,5.0,10.0,40,0.00,CLR,CLR,0.00,0.0,WeatherDisplay:10.37,2013-10-13 21:08:00,
2013-10-13 16:13:00,64.9,40.0,30.12,North,360,2.0,7.0,40,0.00,CLR,CLR,0.00,0.0,WeatherDisplay:10.37,2013-10-13 21:13:00,
2013-10-13 16:23:00,64.4,39.5,30.11,NNE,28,3.0,7.0,40,0.00,CLR,CLR,0.00,0.0,WeatherDisplay:10.37,2013-10-13 21:23:00,
2013-10-13 16:28:00,64.2,40.0,30.11,NNE,17,3.0,8.0,41,0.00,CLR,CLR,0.00,0.0,WeatherDisplay:10.37,2013-10-13 21:28:00,
2013-10-13 16:33:00,64.2,40.6,30.11,North,7,1.0,5.0,42,0.00,CLR,CLR,0.00,0.0,WeatherDisplay:10.37,2013-10-13 21:33:00,
2013-10-13 16:38:00,64.1,39.3,30.11,NNE,23,5.0,7.0,40,0.00,CLR,CLR,0.00,0.0,WeatherDisplay:10.37,2013-10-13 21:38:00,
2013-10-13 16:43:00,64.0,39.8,30.11,NNE,25,3.0,6.0,41,0.00,CLR,CLR,0.00,0.0,WeatherDisplay:10.37,2013-10-13 21:43:00,
2013-10-13 16:48:00,64.1,41.1,30.12,NNE,17,1.0,4.0,43,0.00,CLR,CLR,0.00,0.0,WeatherDisplay:10.37,2013-10-13 21:48:00,
2013-10-13 16:53:00,64.2,40.6,30.12,North,11,2.0,6.0,42,0.00,CLR,CLR,0.00,0.0,WeatherDisplay:10.37,2013-10-13 21:53:00,
2013-10-13 16:58:00,64.0,40.4,30.12,North,358,2.0,8.0,42,0.00,CLR,CLR,0.00,0.0,WeatherDisplay:10.37,2013-10-13 21:58:00,
2013-10-13 17:03:00,63.8,40.3,30.12,North,7,0.0,4.0,42,0.00,CLR,CLR,0.00,0.0,WeatherDisplay:10.37,2013-10-13 22:03:00,
2013-10-13 17:08:00,64.0,40.4,30.12,NNE,16,1.0,3.0,42,0.00,CLR,CLR,0.00,0.0,WeatherDisplay:10.37,2013-10-13 22:08:00,
2013-10-13 17:13:00,63.6,39.5,30.12,NNE,12,1.0,5.0,41,0.00,CLR,CLR,0.00,0.0,WeatherDisplay:10.37,2013-10-13 22:13:00,
2013-10-13 17:18:00,63.5,39.4,30.12,North,11,0.0,3.0,41,0.00,CLR,CLR,0.00,0.0,WeatherDisplay:10.37,2013-10-13 22:18:00,
2013-10-13 17:23:00,63.4,39.3,30.12,North,8,2.0,3.0,41,0.00,CLR,CLR,0.00,0.0,WeatherDisplay:10.37,2013-10-13 22:23:00,
2013-10-13 17:28:00,63.0,40.1,30.12,NNE,23,2.0,5.0,43,0.00,CLR,CLR,0.00,0.0,WeatherDisplay:10.37,2013-10-13 22:28:00,
2013-10-13 17:33:00,62.7,40.5,30.12,NNE,28,0.0,4.0,44,0.00,CLR,CLR,0.00,0.0,WeatherDisplay:10.37,2013-10-13 22:33:00,
2013-10-13 17:38:00,62.3,40.1,30.12,NNE,30,1.0,3.0,44,0.00,CLR,CLR,0.00,0.0,WeatherDisplay:10.37,2013-10-13 22:38:00,
2013-10-13 17:43:00,61.7,40.1,30.12,North,358,2.0,5.0,45,0.00,CLR,CLR,0.00,0.0,WeatherDisplay:10.37,2013-10-13 22:43:00,
2013-10-13 17:48:00,61.0,40.6,30.12,North,351,1.0,4.0,47,0.00,CLR,CLR,0.00,0.0,WeatherDisplay:10.37,2013-10-13 22:48:00,
2013-10-13 17:53:00,60.6,40.2,30.12,North,360,0.0,1.0,47,0.00,CLR,CLR,0.00,0.0,WeatherDisplay:10.37,2013-10-13 22:53:00,
2013-10-13 17:58:00,60.2,41.0,30.12,North,360,0.0,0.0,49,0.00,CLR,CLR,0.00,0.0,WeatherDisplay:10.37,2013-10-13 22:58:00,
2013-10-13 18:03:00,59.6,40.4,30.12,North,360,1.0,2.0,49,0.00,CLR,CLR,0.00,0.0,WeatherDisplay:10.37,2013-10-13 23:03:00,
2013-10-13 18:08:00,59.1,40.5,30.12,North,360,0.0,2.0,50,0.00,CLR,CLR,0.00,0.0,WeatherDisplay:10.37,2013-10-13 23:08:00,
2013-10-13 18:13:00,58.7,39.6,30.12,North,360,0.0,1.0,49,0.00,CLR,CLR,0.00,0.0,WeatherDisplay:10.37,2013-10-13 23:13:00,
2013-10-13 18:18:00,58.3,39.7,30.12,North,360,1.0,2.0,50,0.00,CLR,CLR,0.00,0.0,WeatherDisplay:10.37,2013-10-13 23:18:00,
2013-10-13 18:23:00,58.0,39.9,30.12,North,360,1.0,2.0,51,0.00,CLR,CLR,0.00,0.0,WeatherDisplay:10.37,2013-10-13 23:23:00,
2013-10-13 18:28:00,57.6,40.1,30.12,North,360,0.0,1.0,52,0.00,CLR,CLR,0.00,0.0,WeatherDisplay:10.37,2013-10-13 23:28:00,
2013-10-13 18:33:00,57.2,39.7,30.12,North,360,1.0,2.0,52,0.00,CLR,CLR,0.00,0.0,WeatherDisplay:10.37,2013-10-13 23:33:00,
2013-10-13 18:38:00,56.8,40.3,30.13,North,360,1.0,2.0,54,0.00,CLR,CLR,0.00,0.0,WeatherDisplay:10.37,2013-10-13 23:38:00,
2013-10-13 18:43:00,56.3,41.7,30.13,North,360,0.0,2.0,58,0.00,CLR,CLR,0.00,0.0,WeatherDisplay:10.37,2013-10-13 23:43:00,
2013-10-13 18:48:00,55.6,40.6,30.12,North,360,0.0,0.0,57,0.00,CLR,CLR,0.00,0.0,WeatherDisplay:10.37,2013-10-13 23:48:00,
2013-10-13 18:53:00,54.6,40.1,30.13,North,360,0.0,0.0,58,0.00,CLR,CLR,0.00,0.0,WeatherDisplay:10.37,2013-10-13 23:53:00,
2013-10-13 18:58:00,53.3,39.8,30.13,NNE,29,2.0,5.0,60,0.00,CLR,CLR,0.00,0.0,WeatherDisplay:10.37,2013-10-13 23:58:00,
2013-10-13 19:03:00,52.4,39.7,30.13,ENE,65,0.0,1.0,62,0.00,CLR,CLR,0.00,0.0,WeatherDisplay:10.37,2013-10-14 00:03:00,
2013-10-13 19:08:00,51.7,39.5,30.13,East,81,0.0,1.0,63,0.00,CLR,CLR,0.00,0.0,WeatherDisplay:10.37,2013-10-14 00:08:00,
2013-10-13 19:13:00,50.7,39.7,30.13,East,81,1.0,2.0,66,0.00,CLR,CLR,0.00,0.0,WeatherDisplay:10.37,2013-10-14 00:13:00,
2013-10-13 19:18:00,49.7,39.6,30.13,East,81,0.0,1.0,68,0.00,CLR,CLR,0.00,0.0,WeatherDisplay:10.37,2013-10-14 00:18:00,
2013-10-13 19:28:00,48.9,39.9,30.13,East,81,0.0,0.0,71,0.00,CLR,CLR,0.00,0.0,WeatherDisplay:10.37,2013-10-14 00:28:00,
2013-10-13 19:33:00,48.5,39.5,30.13,East,81,0.0,1.0,71,0.00,CLR,CLR,0.00,0.0,WeatherDisplay:10.37,2013-10-14 00:33:00,
2013-10-13 19:38:00,48.2,39.9,30.14,East,81,0.0,0.0,73,0.00,CLR,CLR,0.00,0.0,WeatherDisplay:10.37,2013-10-14 00:38:00,
2013-10-13 19:48:00,47.1,39.3,30.14,East,81,0.0,0.0,74,0.00,CLR,CLR,0.00,0.0,WeatherDisplay:10.37,2013-10-14 00:48:00,
2013-10-13 19:53:00,46.6,39.4,30.14,East,81,0.0,0.0,76,0.00,CLR,CLR,0.00,0.0,WeatherDisplay:10.37,2013-10-14 00:53:00,
2013-10-13 19:58:00,45.9,39.7,30.14,East,81,0.0,0.0,79,0.00,CLR,CLR,0.00,0.0,WeatherDisplay:10.37,2013-10-14 00:58:00,
2013-10-13 20:08:00,45.2,39.7,30.14,East,81,0.0,1.0,81,0.00,CLR,CLR,0.00,0.0,WeatherDisplay:10.37,2013-10-14 01:08:00,
2013-10-13 20:13:00,44.9,40.0,30.14,East,81,0.0,1.0,83,0.00,CLR,CLR,0.00,0.0,WeatherDisplay:10.37,2013-10-14 01:13:00,
2013-10-13 20:18:00,44.5,39.4,30.14,East,81,0.0,1.0,82,0.00,CLR,CLR,0.00,0.0,WeatherDisplay:10.37,2013-10-14 01:18:00,
2013-10-13 20:23:00,44.0,39.2,30.14,East,81,0.0,1.0,83,0.00,CLR,CLR,0.00,0.0,WeatherDisplay:10.37,2013-10-14 01:23:00,
2013-10-13 20:28:00,43.8,39.3,30.14,East,81,0.0,0.0,84,0.00,CLR,CLR,0.00,0.0,WeatherDisplay:10.37,2013-10-14 01:28:00,
2013-10-13 20:33:00,43.6,39.4,30.15,East,81,0.0,0.0,85,0.00,CLR,CLR,0.00,0.0,WeatherDisplay:10.37,2013-10-14 01:33:00,
2013-10-13 20:38:00,43.3,39.1,30.15,East,81,0.0,1.0,85,0.00,CLR,CLR,0.00,0.0,WeatherDisplay:10.37,2013-10-14 01:38:00,
2013-10-13 20:43:00,43.2,39.6,30.15,East,81,0.0,1.0,87,0.00,CLR,CLR,0.00,0.0,WeatherDisplay:10.37,2013-10-14 01:43:00,
2013-10-13 20:48:00,43.5,40.4,30.15,East,81,0.0,1.0,89,0.00,CLR,CLR,0.00,0.0,WeatherDisplay:10.37,2013-10-14 01:48:00,
2013-10-13 20:53:00,43.9,40.6,30.15,East,81,0.0,1.0,88,0.00,CLR,CLR,0.00,0.0,WeatherDisplay:10.37,2013-10-14 01:53:00,
2013-10-13 20:58:00,43.8,39.9,30.15,East,81,0.0,0.0,86,0.00,CLR,CLR,0.00,0.0,WeatherDisplay:10.37,2013-10-14 01:58:00,
2013-10-13 21:08:00,43.1,39.5,30.15,East,81,0.0,1.0,87,0.00,CLR,CLR,0.00,0.0,WeatherDisplay:10.37,2013-10-14 02:08:00,
2013-10-13 21:13:00,43.0,40.0,30.15,East,81,0.0,1.0,89,0.00,CLR,CLR,0.00,0.0,WeatherDisplay:10.37,2013-10-14 02:13:00,
2013-10-13 21:23:00,42.8,39.5,30.16,East,81,0.0,0.0,88,0.00,CLR,CLR,0.00,0.0,WeatherDisplay:10.37,2013-10-14 02:23:00,
2013-10-13 21:28:00,42.6,39.6,30.16,East,81,0.0,0.0,89,0.00,CLR,CLR,0.00,0.0,WeatherDisplay:10.37,2013-10-14 02:28:00,
2013-10-13 21:38:00,41.8,38.5,30.17,East,81,0.0,1.0,88,0.00,CLR,CLR,0.00,0.0,WeatherDisplay:10.37,2013-10-14 02:38:00,
2013-10-13 21:43:00,41.5,38.5,30.17,East,81,0.0,0.0,89,0.00,CLR,CLR,0.00,0.0,WeatherDisplay:10.37,2013-10-14 02:43:00,
2013-10-13 21:48:00,41.3,38.3,30.17,East,81,0.0,0.0,89,0.00,CLR,CLR,0.00,0.0,WeatherDisplay:10.37,2013-10-14 02:48:00,
2013-10-13 21:53:00,41.1,38.4,30.17,East,81,0.0,0.0,90,0.00,CLR,CLR,0.00,0.0,WeatherDisplay:10.37,2013-10-14 02:53:00,
2013-10-13 21:58:00,41.1,39.0,30.17,East,81,0.0,0.0,92,0.00,CLR,CLR,0.00,0.0,WeatherDisplay:10.37,2013-10-14 02:58:00,
2013-10-13 22:03:00,41.0,38.6,30.17,East,81,0.0,0.0,91,0.00,CLR,CLR,0.00,0.0,WeatherDisplay:10.37,2013-10-14 03:03:00,
2013-10-13 22:13:00,40.9,38.8,30.17,East,81,0.0,1.0,92,0.00,CLR,CLR,0.00,0.0,WeatherDisplay:10.37,2013-10-14 03:13:00,
2013-10-13 22:18:00,40.9,38.8,30.17,East,81,0.0,0.0,92,0.00,CLR,CLR,0.00,0.0,WeatherDisplay:10.37,2013-10-14 03:18:00,
2013-10-13 22:23:00,40.6,38.2,30.17,East,81,0.0,0.0,91,0.00,CLR,CLR,0.00,0.0,WeatherDisplay:10.37,2013-10-14 03:23:00,
2013-10-13 22:28:00,40.4,38.3,30.18,East,81,0.0,0.0,92,0.00,CLR,CLR,0.00,0.0,WeatherDisplay:10.37,2013-10-14 03:28:00,
2013-10-13 22:38:00,40.6,39.0,30.18,East,81,1.0,2.0,94,0.00,CLR,CLR,0.00,0.0,WeatherDisplay:10.37,2013-10-14 03:38:00,
2013-10-13 22:43:00,40.4,38.6,30.18,East,81,0.0,1.0,93,0.00,CLR,CLR,0.00,0.0,WeatherDisplay:10.37,2013-10-14 03:43:00,
2013-10-13 22:48:00,40.3,38.4,30.18,East,81,0.0,0.0,93,0.00,CLR,CLR,0.00,0.0,WeatherDisplay:10.37,2013-10-14 03:48:00,
2013-10-13 22:53:00,39.8,37.7,30.18,East,81,0.0,0.0,92,0.00,CLR,CLR,0.00,0.0,WeatherDisplay:10.37,2013-10-14 03:53:00,
2013-10-13 22:58:00,39.5,37.4,30.18,East,81,0.0,0.0,92,0.00,CLR,CLR,0.00,0.0,WeatherDisplay:10.37,2013-10-14 03:58:00,
2013-10-13 23:03:00,39.5,37.6,30.18,East,81,0.0,0.0,93,0.00,CLR,CLR,0.00,0.0,WeatherDisplay:10.37,2013-10-14 04:03:00,
2013-10-13 23:08:00,39.7,38.1,30.18,East,81,0.0,0.0,94,0.00,CLR,CLR,0.00,0.0,WeatherDisplay:10.37,2013-10-14 04:08:00,
2013-10-13 23:13:00,39.6,38.0,30.18,East,81,0.0,0.0,94,0.00,CLR,CLR,0.00,0.0,WeatherDisplay:10.37,2013-10-14 04:13:00,
2013-10-13 23:18:00,39.9,38.6,30.18,East,81,0.0,0.0,95,0.00,CLR,CLR,0.00,0.0,WeatherDisplay:10.37,2013-10-14 04:18:00,
2013-10-13 23:23:00,40.1,38.8,30.18,East,81,0.0,0.0,95,0.00,CLR,CLR,0.00,0.0,WeatherDisplay:10.37,2013-10-14 04:23:00,
2013-10-13 23:28:00,39.9,38.3,30.18,East,81,0.0,0.0,94,0.00,CLR,CLR,0.00,0.0,WeatherDisplay:10.37,2013-10-14 04:28:00,
2013-10-13 23:33:00,39.7,38.1,30.18,East,81,0.0,0.0,94,0.00,CLR,CLR,0.00,0.0,WeatherDisplay:10.37,2013-10-14 04:33:00,
2013-10-13 23:38:00,39.6,38.0,30.18,East,81,0.0,0.0,94,0.00,CLR,CLR,0.00,0.0,WeatherDisplay:10.37,2013-10-14 04:38:00,
2013-10-13 23:43:00,39.5,38.0,30.18,East,81,0.0,0.0,94,0.00,CLR,CLR,0.00,0.0,WeatherDisplay:10.37,2013-10-14 04:43:00,
2013-10-13 23:48:00,39.6,38.3,30.18,East,81,0.0,0.0,95,0.00,CLR,CLR,0.00,0.0,WeatherDisplay:10.37,2013-10-14 04:48:00,
2013-10-13 23:53:00,39.4,37.9,30.18,East,81,0.0,0.0,94,0.00,CLR,CLR,0.00,0.0,WeatherDisplay:10.37,2013-10-14 04:53:00,
2013-10-13 23:58:00,39.0,37.2,30.17,East,81,0.0,0.0,93,0.00,CLR,CLR,0.00,0.0,WeatherDisplay:10.37,2013-10-14 04:58:00,